TimeFrame on Redefined Productions
Outwar Torax TimeFrame

Torax TimeFrame

96 Gods Updated: 2019-07-14 14:40:01
NameTime LeftWindow Opens
Old World Drake38d 02:172019-06-07 11:46:00
Raiyar, the Shadow Master2d 02:042019-07-13 11:59:00
Lord Suka1d 03:052019-07-14 10:58:00
Felroc, Overseer of Hellfire1d 00:092019-07-14 13:54:00
Jazzmin, Maiden of Vitality0d 20:382019-07-14 17:25:00
Xynak, the Arcane Master0d 14:552019-07-14 23:08:00
Terrance, Rebel of Rallis0d 14:462019-07-14 23:17:00
Zertan, The Collector0d 14:462019-07-14 23:17:00
Gnorb0d 12:002019-07-15 02:03:00
Synge, The Red Dragon0d 11:262019-07-15 02:37:00
Balerion, Dragon of Dread0d 10:322019-07-15 03:31:00
Traxodon the Plaguebringer0d 09:572019-07-15 04:06:00
Kretok, Descendant of Nature0d 09:092019-07-15 04:54:00
Garland, The Lord Keeper0d 08:582019-07-15 05:05:00
Crane0d 07:502019-07-15 06:13:00
Skybrine The Inescapable0d 06:402019-07-15 07:23:00
Lord Sibannac0d 05:082019-07-15 08:55:00
Freezebreed, The Frozen Manipulator0d 04:412019-07-15 09:22:00
Volgan the Living Ironbark0d 03:132019-07-15 10:50:00
Emperor Neudeus, Controller of the Universe0d 03:122019-07-15 10:51:00
Melt Bane, The Forbidden Demon Dragon0d 01:522019-07-15 12:11:00
Ganja the Stone Golem0d 01:462019-07-15 12:17:00
The Emerald Assassin0d 01:142019-07-15 12:49:00
Tsort0d 01:122019-07-15 12:51:00
Ebliss, Fallen Angel of Despair0d 00:552019-07-15 13:08:00
Vitkros, Hydra of the Deep0d 02:092019-07-15 16:13:00
Zikkir the Dark Archer0d 04:452019-07-15 18:49:00
Tylos, The Lord Master0d 06:292019-07-15 20:33:00
Rancid, Lord of Thugs0d 06:452019-07-15 20:49:00
Lord Xordam0d 07:482019-07-15 21:52:00
Lord Narada0d 08:162019-07-15 22:20:00
Sylvanna TorLai0d 08:322019-07-15 22:36:00
Crantos, Defender of Ultimation0d 08:542019-07-15 22:58:00
Howldroid, Tormentor of the Pit0d 09:012019-07-15 23:05:00
Rotborn, Eater of the Dead0d 10:002019-07-16 00:04:00
Lord Varan0d 11:332019-07-16 01:37:00
Nessam0d 11:352019-07-16 01:39:00
Baron Mu, Dark Rider of the Undead0d 11:572019-07-16 02:01:00
Lady Chaos, Queen of the Abyss0d 14:092019-07-16 04:13:00
Straya, the Underworld Ruler0d 14:592019-07-16 05:03:00
Jorun the Blazing Swordsman0d 15:592019-07-16 06:03:00
Gorganus of the Wood0d 16:002019-07-16 06:04:00
Viserion, the Necrodragon0d 16:512019-07-16 06:55:00
Akkel the Enflamed Warrior0d 17:132019-07-16 07:17:00
Ancient Magus Tarkin0d 17:472019-07-16 07:51:00
Numerocure, The Black Messenger of Evil0d 19:012019-07-16 09:05:00
King Ashnar, Lord of the Unliving0d 23:002019-07-16 13:04:00
Sarcrina the Astral Priestess1d 00:072019-07-16 14:11:00
Threk, King of Lords1d 00:252019-07-16 14:29:00
Bloodchill the Grizzly1d 00:262019-07-16 14:30:00
Grivvek, Protector of the Brood1d 01:552019-07-16 15:59:00
Lady Ariella1d 04:242019-07-16 18:28:00
Anguish1d 05:362019-07-16 19:40:00
Keeper of Nature1d 05:382019-07-16 19:42:00
Pinosis1d 06:082019-07-16 20:12:00
Shadow1d 06:102019-07-16 20:14:00
Ormsul the Putrid1d 07:272019-07-16 21:31:00
Smoot the Yeti1d 07:372019-07-16 21:41:00
Brutalitar, Lord of the Underworld1d 07:542019-07-16 21:58:00
Anvilfist1d 09:012019-07-16 23:05:00
Archdevil Yirkon1d 09:432019-07-16 23:47:00
Murderface1d 10:202019-07-17 00:24:00
Karvaz, Lord of Alsayic1d 16:292019-07-17 06:33:00
Dreg nor, Keeper of the Infernal Essence1d 17:382019-07-17 07:42:00
Crolvak, the Fire Master1d 18:512019-07-17 08:55:00
Nayark the Mummified Sorcerer1d 23:542019-07-17 13:58:00
Samatha Dark-Soul2d 00:092019-07-17 14:13:00
Great Lord Ganeshan2d 02:302019-07-17 16:34:00
Detox2d 04:102019-07-17 18:14:00
Quiver, The Renegade2d 04:452019-07-17 18:49:00
Sigil, Lich of Woe2d 07:112019-07-17 21:15:00
Skarthul the Avenged2d 09:012019-07-17 23:05:00
Nar Zhul, Slayer of All2d 12:232019-07-18 02:27:00
Amalgamated Apparition2d 13:322019-07-18 03:36:00
Ag Nabak the Abomination2d 14:392019-07-18 04:43:00
Hackerphage, Protector of the Gateway2d 15:092019-07-18 05:13:00
Esquin, the Kinetic Master2d 17:552019-07-18 07:59:00
Lacuste of the Swarm3d 00:322019-07-18 14:36:00
Slashbrood, Devourer of the Blackness3d 05:312019-07-18 19:35:00
Q-SEC Commander3d 08:582019-07-18 23:02:00
Windstrike The Vile3d 09:442019-07-18 23:48:00
Dexor, Victor of Veldara3d 13:422019-07-19 03:46:00
Nafir, God of Desolation3d 14:512019-07-19 04:55:00
Bolkor, the Holy Master3d 21:022019-07-19 11:06:00
Dlanod, the Crazed Chancellor4d 02:042019-07-19 16:08:00
Varsanor, Master of Darkness4d 04:522019-07-19 18:56:00
Kro Shuk, Doomslayer4d 06:052019-07-19 20:09:00
Shaik, Servant of Arkron86d 18:552019-04-19 19:08:00
Rook, Hand of Arkron86d 17:192019-04-19 20:44:00
Animated Captain38d 02:502019-06-07 11:13:00
Jade Dragonite38d 01:202019-06-07 12:43:00
Beast of Cards28d 23:092019-06-16 14:54:00
Noxious Slug27d 10:412019-06-18 03:22:00
Wanhiroeaz the Devourer14d 08:382019-07-01 05:25:00
Hyrak, Bringer of Nightmares13d 14:252019-07-01 23:38:00
Mistress of the Sword10d 02:132019-07-05 11:50:00